Cosmos 2219 Rocket - Orbit

View from above orbital plane
View from above orbital plane
View from above satellite
View from above satellite

Ground track
Ground track

The orbit data is extracted from the following two-line orbital elements,

1 22220U 92076B   13168.53216519  .00000218  00000-0  13424-3 0   611
2 22220 071.0006 253.4885 0014024 330.6936 152.8375 14.16258332 63959
Epoch (UTC): 17 June 2013 12:46:19
Eccentricity: 0.0014024
inclination: 71.0006°
perigee height: 828 km
apogee height: 848 km
right ascension of ascending node: 253.4885°
argument of perigee: 330.6936°
revolutions per day: 14.16258332
mean anomaly at epoch: 152.8375°
orbit number at epoch: 6395

The dashed part of the orbit path shows where the satellite is in the earth's shadow,  

Developed and maintained by Chris Peat, Heavens-Above GmbH. Please read the updated FAQ before sending e-mail. Imprint. DLR